Chippewa, MI

4:34 PM EDT on May 22, 2017 (GMT -0400)
Chippewa County International

Weather History for KCIU - April, 2014

Change the Weather History Date:

Friday, April 25, 2014

  Actual Average Record
Temperature  
Mean Temperature 40 °F -  
Max Temperature 46 °F 57 °F 68 °F (1990)
Min Temperature 33 °F 32 °F 21 °F (2015)
Degree Days  
Heating Degree Days 26    
Moisture  
Dew Point 29 °F    
Average Humidity 68    
Maximum Humidity 100    
Minimum Humidity 49    
Precipitation  
Precipitation 0.08 in - - ()
Sea Level Pressure  
Sea Level Pressure 29.79 in    
Wind  
Wind Speed 14 mph (ESE)    
Max Wind Speed 23 mph    
Max Gust Speed 32 mph    
Visibility 10 miles    
Events      
Averages and records for this station are not official NWS values.
T = Trace of Precipitation, MM = Missing Value Source: NWS Daily Summary

Daily Weather History Graph

Daily Weather History Graph

Search for Another Location

Airport or City:

Trip Planner

Search our weather history database for the weather conditions in past years. The results will help you decide how hot, cold, wet, or windy it might be!

Date:

Astronomy

Apr. 25, 2014 Rise Set
Actual Time 6:33 AM EDT 8:38 PM EDT
Civil Twilight 6:01 AM EDT 9:11 PM EDT
Nautical Twilight 5:21 AM EDT 9:51 PM EDT
Astronomical Twilight 4:36 AM EDT 10:36 PM EDT
Moon 4:35 AM EDT (4/25) 4:47 PM EDT (4/25)
Length of Visible Light 15h 09m
Length of Day
14h 04m
Waning Crescent, 15% of the Moon is Illuminated
Apr 25
Waning Crescent
Apr 29
New
May 6
First Quarter
May 14
Full
May 21
Last Quarter

Hourly Weather History & Observations

Time (EDT) Temp. Windchill Dew Point Humidity Pressure Visibility Wind Dir Wind Speed Gust Speed Precip Events Conditions
12:15 AM 35.6 °F 25.9 °F 33.8 °F 93% 29.94 in 10.0 mi ENE 16.1 mph - N/A   Overcast
12:35 AM 37.4 °F 30.3 °F 33.8 °F 87% 29.95 in 10.0 mi ENE 10.4 mph - N/A   Overcast
12:55 AM 39.2 °F 32.5 °F 30.2 °F 70% 29.94 in 10.0 mi East 10.4 mph - N/A   Overcast
1:15 AM 39.2 °F 33.0 °F 30.2 °F 70% 29.95 in 10.0 mi East 9.2 mph - N/A   Overcast
1:35 AM 39.2 °F 30.8 °F 30.2 °F 70% 29.93 in 10.0 mi East 15.0 mph - N/A   Overcast
1:55 AM 37.4 °F 27.8 °F 30.2 °F 75% 29.91 in 10.0 mi ENE 17.3 mph - N/A   Overcast
2:15 AM 37.4 °F 29.3 °F 30.2 °F 75% 29.91 in 10.0 mi East 12.7 mph - N/A   Overcast
2:35 AM 39.2 °F 30.8 °F 28.4 °F 65% 29.91 in 10.0 mi East 15.0 mph - N/A   Overcast
2:55 AM 37.4 °F 28.5 °F 28.4 °F 70% 29.89 in 10.0 mi East 15.0 mph 23.0 mph N/A   Overcast
3:15 AM 37.4 °F 27.8 °F 30.2 °F 75% 29.87 in 10.0 mi East 17.3 mph 26.5 mph N/A   Overcast
3:35 AM 37.4 °F 28.5 °F 30.2 °F 75% 29.87 in 10.0 mi East 15.0 mph 23.0 mph N/A   Overcast
3:55 AM 37.4 °F 27.2 °F 30.2 °F 75% 29.85 in 10.0 mi East 19.6 mph 24.2 mph N/A   Overcast
4:15 AM 37.4 °F 27.5 °F 30.2 °F 75% 29.84 in 10.0 mi East 18.4 mph 24.2 mph N/A   Overcast
4:35 AM 37.4 °F 28.5 °F 30.2 °F 75% 29.84 in 10.0 mi East 15.0 mph 24.2 mph N/A   Overcast
4:55 AM 37.4 °F 28.9 °F 30.2 °F 75% 29.83 in 10.0 mi East 13.8 mph - N/A   Overcast
5:15 AM 37.4 °F 28.2 °F 28.4 °F 70% 29.82 in 10.0 mi East 16.1 mph 23.0 mph N/A   Overcast
5:35 AM 37.4 °F 27.2 °F 24.8 °F 60% 29.82 in 10.0 mi East 19.6 mph 31.1 mph N/A   Overcast
5:55 AM 37.4 °F 26.9 °F 24.8 °F 60% 29.81 in 10.0 mi East 20.7 mph 27.6 mph N/A   Overcast
6:15 AM 37.4 °F 26.9 °F 23.0 °F 56% 29.82 in 10.0 mi East 20.7 mph 32.2 mph N/A   Overcast
6:35 AM 37.4 °F 26.4 °F 24.8 °F 60% 29.81 in 10.0 mi East 23.0 mph 29.9 mph N/A   Overcast
6:55 AM 37.4 °F 27.2 °F 24.8 °F 60% 29.81 in 10.0 mi East 19.6 mph 27.6 mph N/A   Overcast
7:15 AM 37.4 °F 26.4 °F 24.8 °F 60% 29.80 in 10.0 mi East 23.0 mph 27.6 mph N/A   Overcast
7:35 AM 37.4 °F 28.2 °F 24.8 °F 60% 29.81 in 10.0 mi ESE 16.1 mph - N/A   Overcast
7:55 AM 37.4 °F 26.9 °F 24.8 °F 60% 29.79 in 10.0 mi East 20.7 mph 26.5 mph N/A   Overcast
8:15 AM 37.4 °F 27.2 °F 24.8 °F 60% 29.80 in 10.0 mi East 19.6 mph 25.3 mph N/A   Overcast
8:35 AM 37.4 °F 28.2 °F 24.8 °F 60% 29.79 in 10.0 mi East 16.1 mph 21.9 mph N/A   Overcast
8:55 AM 37.4 °F 28.9 °F 24.8 °F 60% 29.79 in 10.0 mi East 13.8 mph - N/A   Overcast
9:15 AM 37.4 °F 28.2 °F 24.8 °F 60% 29.78 in 10.0 mi East 16.1 mph 19.6 mph N/A   Overcast
9:35 AM 39.2 °F 31.2 °F 24.8 °F 56% 29.77 in 10.0 mi East 13.8 mph 24.2 mph N/A   Overcast
9:55 AM 39.2 °F 30.8 °F 24.8 °F 56% 29.77 in 10.0 mi ESE 15.0 mph 20.7 mph N/A   Overcast
10:15 AM 39.2 °F 30.2 °F 24.8 °F 56% 29.76 in 10.0 mi ESE 17.3 mph 21.9 mph N/A   Overcast
10:35 AM 39.2 °F 31.2 °F 24.8 °F 56% 29.76 in 10.0 mi ESE 13.8 mph 21.9 mph N/A   Overcast
10:55 AM 39.2 °F 30.5 °F 24.8 °F 56% 29.76 in 10.0 mi ESE 16.1 mph - N/A   Overcast
11:15 AM 41.0 °F 33.9 °F 24.8 °F 53% 29.76 in 10.0 mi ESE 12.7 mph 16.1 mph N/A   Overcast
11:35 AM 41.0 °F 33.1 °F 24.8 °F 53% 29.75 in 10.0 mi East 15.0 mph - N/A   Overcast
11:55 AM 39.2 °F 32.0 °F 24.8 °F 56% 29.76 in 10.0 mi East 11.5 mph - N/A   Overcast
12:15 PM 39.2 °F 31.6 °F 24.8 °F 56% 29.76 in 10.0 mi East 12.7 mph - N/A   Overcast
12:35 PM 41.0 °F 33.5 °F 24.8 °F 53% 29.76 in 10.0 mi East 13.8 mph 18.4 mph N/A   Overcast
12:55 PM 41.0 °F 32.8 °F 24.8 °F 53% 29.75 in 10.0 mi East 16.1 mph - N/A   Overcast
1:15 PM 41.0 °F 34.3 °F 24.8 °F 53% 29.75 in 10.0 mi East 11.5 mph - N/A   Overcast
1:35 PM 42.8 °F 37.0 °F 24.8 °F 49% 29.75 in 10.0 mi ESE 10.4 mph - N/A   Overcast
1:55 PM 42.8 °F 37.5 °F 24.8 °F 49% 29.75 in 10.0 mi ESE 9.2 mph 19.6 mph N/A   Overcast
2:15 PM 42.8 °F 34.5 °F 24.8 °F 49% 29.74 in 10.0 mi ESE 18.4 mph - N/A   Overcast
2:35 PM 44.6 °F 38.1 °F 26.6 °F 49% 29.73 in 10.0 mi ESE 13.8 mph - N/A   Mostly Cloudy
2:55 PM 44.6 °F 37.2 °F 28.4 °F 53% 29.73 in 10.0 mi SSE 17.3 mph 24.2 mph N/A   Mostly Cloudy
3:15 PM 44.6 °F 38.1 °F 28.4 °F 53% 29.73 in 10.0 mi SSE 13.8 mph 21.9 mph N/A   Overcast
3:35 PM 46.4 °F 39.5 °F 28.4 °F 50% 29.73 in 10.0 mi SE 17.3 mph 21.9 mph N/A   Overcast
3:55 PM 46.4 °F 40.4 °F 28.4 °F 50% 29.72 in 10.0 mi SSE 13.8 mph - N/A   Overcast
4:15 PM 44.6 °F 37.8 °F 30.2 °F 57% 29.72 in 10.0 mi East 15.0 mph 19.6 mph N/A   Overcast
4:35 PM 44.6 °F 37.2 °F 30.2 °F 57% 29.72 in 10.0 mi East 17.3 mph 21.9 mph N/A   Mostly Cloudy
4:55 PM 44.6 °F 38.8 °F 32.0 °F 61% 29.72 in 10.0 mi East 11.5 mph - N/A   Mostly Cloudy
5:15 PM 44.6 °F 38.1 °F 33.8 °F 66% 29.73 in 10.0 mi SE 13.8 mph 18.4 mph N/A   Overcast
5:35 PM 44.6 °F 37.4 °F 33.8 °F 66% 29.73 in 10.0 mi SSE 16.1 mph 19.6 mph N/A   Overcast
5:55 PM 44.6 °F 38.4 °F 33.8 °F 66% 29.74 in 10.0 mi SSE 12.7 mph - N/A   Overcast
6:15 PM 42.8 °F 36.6 °F 32.0 °F 66% 29.74 in 10.0 mi SE 11.5 mph - N/A   Overcast
6:35 PM 42.8 °F 37.5 °F 30.2 °F 61% 29.74 in 10.0 mi ESE 9.2 mph - N/A   Overcast
6:55 PM 42.8 °F 35.4 °F 33.8 °F 70% 29.74 in 10.0 mi ESE 15.0 mph - N/A   Overcast
7:15 PM 41.0 °F 33.9 °F 33.8 °F 76% 29.72 in 10.0 mi ESE 12.7 mph - N/A   Overcast
7:35 PM 39.2 °F 32.0 °F 33.8 °F 81% 29.73 in 10.0 mi SE 11.5 mph - N/A   Overcast
7:55 PM 39.2 °F 32.0 °F 33.8 °F 81% 29.73 in 10.0 mi SE 11.5 mph - N/A   Overcast
8:15 PM 39.2 °F 32.5 °F 33.8 °F 81% 29.72 in 10.0 mi ESE 10.4 mph - N/A   Overcast
8:35 PM 39.2 °F 31.6 °F 32.0 °F 75% 29.72 in 10.0 mi ESE 12.7 mph 18.4 mph N/A   Overcast
8:55 PM 39.2 °F 31.2 °F 32.0 °F 75% 29.72 in 10.0 mi ESE 13.8 mph - N/A   Overcast
9:15 PM 39.2 °F 35.9 °F 33.8 °F 81% 29.76 in 10.0 mi South 4.6 mph - N/A   Overcast
9:35 PM 37.4 °F 32.8 °F 35.6 °F 93% 29.77 in 6.0 mi SSE 5.8 mph - 0.01 in   Overcast
9:55 PM 35.6 °F 32.8 °F 35.6 °F 100% 29.77 in 10.0 mi South 3.5 mph - 0.02 in   Overcast
10:15 PM 35.6 °F 31.7 °F 33.8 °F 93% 29.77 in 10.0 mi East 4.6 mph - 0.01 in   Overcast
10:35 PM 35.6 °F 31.7 °F 33.8 °F 93% 29.77 in 10.0 mi East 4.6 mph - 0.02 in   Overcast
10:55 PM 35.6 °F 31.7 °F 35.6 °F 100% 29.77 in 10.0 mi East 4.6 mph - 0.03 in   Overcast
11:15 PM 35.6 °F - 35.6 °F 100% 29.77 in 7.0 mi Calm Calm - 0.01 in   Overcast
11:35 PM 33.8 °F 30.8 °F 33.8 °F 100% 29.77 in 4.0 mi ENE 3.5 mph - 0.02 in   Overcast
11:55 PM 33.8 °F 30.8 °F 33.8 °F 100% 29.77 in 3.0 mi NNE 3.5 mph - 0.03 in   Overcast